Location: *
(46.4000°N, 12.6667°E)
Time: 18:51:13
(UTC+00:00)

ISS - Pass Details

Date: 10 March 2021
Orbit: 418 x 421 km, 51.6° (Epoch: 21 April)

Event Time Altitude Azimuth Distance (km) Brightness Sun altitude
Exits shadow 04:44:03 12° 278° (W) 1,356 -1.8 -9.0°
Maximum altitude 04:46:38 30° 219° (SW) 782 -2.7 -8.6°
Drops below altitude 10° 04:49:36 10° 156° (SSE) 1,491 -0.7 -8.1°
Sets 04:51:50 0° 145° (SE) 2,351 0.5 -7.7°
